[[{"header":{"parameterUnit":"m.s-1","parameterCategory":2,"la1":30.2991,"la2":30.254,"lo1":-89.0895,"lo2":-89.0444,"dy":0.0017,"dx":0.0017,"nx":28,"ny":28,"refTime":"2023-10-19T03:00:00:Z","depth":"0","parameterNumber":2,"parameterNumberName":"U-component_of_CURRENTS"},"data":[0,0,0,0,0,0,0,0,0,0,0,0,0,0,0,0,0,0,0,0,0,0,0,0,0,0,0,0,0,0,0,0,0,0,0,0,0,0,0,0,0,0,0,0,0,0,0,0,0,0,0,0,0,0,0,0,0,0,-0.248,-0.248,0,-0.2529,-0.2529,-0.2529,-0.2451,-0.2448,-0.2446,-0.2444,-0.2311,-0.2309,-0.2308,0,0,0,0,0,0,0,0,0,0,0,0,0,-0.2303,-0.2306,-0.248,-0.2481,-0.2481,-0.2529,-0.2529,-0.2529,-0.2451,-0.2448,-0.2445,-0.2443,-0.2311,-0.231,-0.2308,0,0,0,0,0,0,0,0,0,0,0,0,0,-0.2365,-0.2307,-0.2479,-0.2451,-0.2449,-0.2529,-0.2529,-0.253,-0.2452,-0.2448,-0.2444,-0.2441,-0.2312,-0.231,-0.2308,-0.2367,0,0,-0.2302,-0.2301,0,0,0,0,0,0,0,0,-0.2362,-0.2371,-0.2454,-0.2453,-0.2451,-0.2483,-0.2418,-0.2467,-0.2453,-0.2447,-0.2444,-0.2439,-0.2356,-0.2351,-0.2365,-0.2361,-0.2355,-0.2302,-0.23,-0.23,-0.2299,0,0,0,0,0,0,0,-0.2358,-0.2369,-0.2495,-0.2455,-0.2454,-0.243,-0.2435,-0.2428,-0.2415,-0.2447,-0.2442,-0.2455,-0.2353,-0.2368,-0.2361,-0.2353,-0.2302,-0.23,-0.2299,-0.2298,-0.2453,-0.2458,0,0,0,0,0,0,-0.2365,-0.2366,-0.2494,-0.2497,-0.2401,-0.2437,-0.2442,-0.2473,-0.2419,-0.241,-0.2458,-0.2451,-0.2373,-0.2364,-0.2356,-0.242,-0.23,-0.2298,-0.2297,-0.2448,-0.2454,-0.246,0,0,0,0,0,0,-0.2361,-0.2376,-0.2492,-0.2433,-0.2447,-0.2444,-0.248,-0.2476,-0.2477,-0.243,-0.2415,-0.246,-0.237,-0.2359,-0.2385,-0.2413,-0.2297,-0.2295,-0.2442,-0.245,-0.2457,-0.2549,0,0,0,0,0,0,-0.2356,-0.2375,-0.2397,-0.2435,-0.2451,-0.256,-0.2484,-0.248,-0.2493,-0.2484,-0.2428,-0.2413,-0.2366,-0.239,-0.2384,-0.2409,-0.2294,-0.2435,-0.2445,-0.2455,-0.2539,-0.2559,-0.2576,0,0,0,0,0,-0.235,-0.2408,-0.2398,-0.2413,-0.2482,-0.2563,-0.2571,-0.2551,-0.2496,-0.253,-0.2502,-0.2414,-0.2448,-0.2393,-0.2384,-0.2409,-0.243,-0.2442,-0.2454,-0.2531,-0.2555,-0.2576,0,0,0,0,0,0,-0.2318,-0.2407,-0.2396,-0.2469,-0.2518,-0.2551,-0.258,-0.2562,-0.2569,-0.2541,-0.2476,-0.2464,-0.2502,-0.2472,-0.2412,-0.2498,-0.2428,-0.2438,-0.2489,-0.2512,-0.253,-0.2492,-0.2292,0,0,0,0,0,-0.2331,-0.2405,-0.2465,-0.2517,-0.255,-0.2562,-0.2585,-0.2577,-0.2592,-0.2588,-0.2557,-0.254,-0.2556,-0.2542,-0.2555,-0.2591,-0.2501,-0.2613,-0.2632,-0.2647,-0.2621,-0.2518,-0.252,-0.2499,-0.2499,-0.2499,0,0,-0.2321,-0.2386,-0.2416,-0.2517,-0.2545,-0.2612,-0.2566,-0.2617,-0.265,-0.2574,-0.2605,-0.2603,-0.259,-0.264,-0.2653,-0.2603,-0.2623,-0.2662,-0.2673,-0.2639,-0.253,-0.253,-0.253,-0.2507,-0.2506,-0.2505,0,0,-0.2365,-0.2411,-0.2489,-0.2549,-0.2621,-0.2646,-0.2664,-0.2711,-0.271,-0.2767,-0.2723,-0.2739,-0.2764,-0.2752,-0.2749,-0.2883,-0.2734,-0.2903,-0.2934,-0.2836,-0.2833,-0.283,-0.2758,-0.2747,-0.2895,-0.2896,-0.2896,0,-0.2342,-0.2454,-0.2518,-0.2609,-0.2648,-0.2665,-0.273,-0.2763,-0.2804,-0.2795,-0.2791,-0.2815,-0.2812,-0.2827,-0.2896,-0.291,-0.2834,-0.2834,-0.2847,-0.2842,-0.2836,-0.2763,-0.2749,-0.2902,-0.2901,-0.29,-0.29,0,-0.2449,-0.2528,-0.2582,-0.2702,-0.2756,-0.2823,-0.2876,-0.2909,-0.2907,-0.2909,-0.2934,-0.2947,-0.2933,-0.2974,-0.2977,-0.2963,-0.292,-0.2883,-0.276,-0.2841,-0.2763,-0.2747,-0.291,-0.2908,-0.2906,-0.2905,0,0,-0.24,-0.2617,-0.2622,-0.2671,-0.2804,-0.2841,-0.2923,-0.2975,-0.2951,-0.3013,-0.297,-0.307,-0.3026,-0.3026,-0.302,-0.2968,-0.2912,-0.292,-0.2912,-0.2795,-0.2695,-0.2604,-0.2577,-0.285,-0.2847,-0.2845,-0.2666,0,-0.2446,-0.2613,-0.2714,-0.2812,-0.2885,-0.2938,-0.2991,-0.3023,-0.3033,-0.3002,-0.3005,-0.2982,-0.3059,-0.3022,-0.3001,-0.2917,-0.2868,-0.2964,-0.268,-0.2672,-0.2534,-0.2554,-0.2433,-0.2257,-0.265,-0.2647,-0.2645,0,-0.2494,-0.2601,-0.2724,-0.2837,-0.2864,-0.2916,-0.2933,-0.2986,-0.2975,-0.2967,-0.2954,-0.2925,-0.2907,-0.2923,-0.2822,-0.287,-0.2802,-0.2743,-0.2732,-0.2586,-0.2548,-0.2239,-0.2211,-0.2217,-0.2618,-0.262,-0.2622,0,-0.239,-0.2581,-0.2665,-0.2714,-0.2859,-0.2878,-0.2928,-0.2949,-0.2936,-0.2903,-0.2849,-0.2833,-0.2769,-0.2707,-0.2667,-0.2708,-0.2498,-0.2519,-0.2379,-0.2372,-0.2181,-0.2161,-0.2065,-0.2406,-0.2407,-0.2407,-0.2408,0,-0.239,-0.2436,-0.2613,-0.2649,-0.2674,-0.2795,-0.2783,-0.2816,-0.2805,-0.2756,-0.2796,-0.2723,-0.2702,-0.2607,-0.2586,-0.2429,-0.243,-0.2361,-0.2302,-0.2223,-0.221,-0.2134,-0.219,-0.24,-0.2402,-0.2403,-0.2404,0,-0.2244,-0.2392,-0.2463,-0.2605,-0.2632,-0.2626,-0.2695,-0.2676,-0.2697,-0.2618,-0.2594,-0.2579,-0.2468,-0.2436,-0.2294,-0.2285,-0.2114,-0.2103,-0.2034,-0.197,-0.1856,-0.1924,-0.1755,-0.1709,-0.1901,-0.1897,-0.1894,0,-0.2184,-0.2222,-0.236,-0.2373,-0.2433,-0.2469,-0.2487,-0.2581,-0.256,-0.2533,-0.2462,-0.2357,-0.2245,-0.2036,-0.1972,-0.1846,-0.1927,-0.1695,-0.1764,-0.1806,-0.1838,-0.1922,-0.1905,-0.157,-0.1564,-0.156,-0.1556,0,-0.2014,-0.2065,-0.211,-0.2157,-0.2193,-0.2232,-0.2271,-0.2243,-0.2331,-0.2258,-0.2141,-0.204,-0.1905,-0.1715,-0.1596,-0.1538,-0.1665,-0.1599,-0.1628,-0.1552,-0.1644,-0.1584,-0.1774,-0.1517,-0.1521,-0.1524,-0.1526,-0.1527,-0.1815,-0.1795,-0.1854,-0.1873,-0.1923,-0.1923,-0.1873,-0.1913,-0.1825,-0.1661,-0.1766,-0.1524,-0.1556,-0.1347,-0.1294,-0.1215,-0.1338,-0.1207,-0.128,-0.1359,-0.1327,-0.1452,-0.1143,-0.1145,-0.1146,-0.1148,-0.1149,0,-0.154,-0.1548,-0.1563,-0.157,-0.153,-0.1654,-0.1655,-0.1557,-0.1383,-0.1287,-0.1133,-0.1006,-0.0921,-0.097,-0.0988,-0.0941,-0.0963,-0.0945,-0.1045,-0.1037,-0.1092,-0.1092,-0.0774,-0.0774,-0.0774,-0.0774,-0.0774,-0.0774,-0.1385,-0.1299,-0.1332,-0.1167,-0.1171,-0.1053,-0.1017,-0.0905,-0.0796,-0.0504,-0.0337,-0.0288,-0.0567,-0.0887,-0.0926,-0.087,-0.092,-0.0861,-0.0948,-0.1023,-0.1055,-0.1086,-0.1098,-0.0785,-0.0785,-0.0827,-0.0828,-0.0828]},{"header":{"parameterUnit":"m.s-1","parameterCategory":2,"la1":30.2991,"la2":30.254,"lo1":-89.0895,"lo2":-89.0444,"dy":0.0017,"dx":0.0017,"nx":28,"ny":28,"refTime":"2023-10-19T03:00:00:Z","depth":"0","parameterNumber":3,"parameterNumberName":"V-component_of_CURRENTS"},"data":[0,0,0,0,0,0,0,0,0,0,0,0,0,0,0,0,0,0,0,0,0,0,0,0,0,0,0,0,0,0,0,0,0,0,0,0,0,0,0,0,0,0,0,0,0,0,0,0,0,0,0,0,0,0,0,0,0,0,0.0734,0.0736,0,0.0902,0.0904,0.0906,0.0979,0.0979,0.0979,0.0979,0.1096,0.1099,0.1103,0,0,0,0,0,0,0,0,0,0,0,0,0,0.0556,0.0558,0.0734,0.0736,0.0738,0.0902,0.0904,0.0906,0.0979,0.0979,0.0979,0.0979,0.1095,0.1099,0.1103,0,0,0,0,0,0,0,0,0,0,0,0,0,0.0667,0.0559,0.0733,0.0796,0.0803,0.0901,0.0904,0.0907,0.0979,0.0979,0.0979,0.0979,0.1094,0.1099,0.1103,0.1137,0,0,0.1118,0.112,0,0,0,0,0,0,0,0,0.0661,0.0674,0.0784,0.0791,0.08,0.0921,0.0885,0.0982,0.0979,0.091,0.0979,0.0978,0.1034,0.1044,0.1074,0.1142,0.1147,0.1119,0.1122,0.1124,0.1125,0,0,0,0,0,0,0,0.0653,0.0667,0.0799,0.0787,0.0796,0.0843,0.0857,0.0904,0.0969,0.0916,0.0922,0.0944,0.1038,0.1069,0.1077,0.1149,0.1119,0.1123,0.1126,0.1128,0.1186,0.1184,0,0,0,0,0,0,0.0632,0.066,0.0793,0.0804,0.073,0.0846,0.0862,0.0881,0.097,0.0984,0.0944,0.0947,0.1061,0.1072,0.1082,0.1062,0.1124,0.1128,0.1131,0.1187,0.1185,0.1184,0,0,0,0,0,0,0.0627,0.0642,0.0787,0.0737,0.0759,0.0848,0.0869,0.0884,0.0908,0.0991,0.1004,0.0951,0.1062,0.1075,0.1101,0.1069,0.113,0.1135,0.1189,0.1187,0.1185,0.1062,0,0,0,0,0,0,0.0621,0.0639,0.0632,0.0735,0.0761,0.0813,0.087,0.0888,0.0923,0.0928,0.1002,0.1014,0.1062,0.1093,0.1106,0.1077,0.1139,0.119,0.1188,0.1185,0.1068,0.1057,0.1046,0,0,0,0,0,0.0614,0.0596,0.063,0.0646,0.0752,0.0812,0.0827,0.0891,0.0923,0.0916,0.097,0.1011,0.1085,0.1096,0.1111,0.1083,0.1192,0.1189,0.1186,0.1073,0.1059,0.1047,0,0,0,0,0,0,0.0509,0.0606,0.0644,0.0655,0.0717,0.0824,0.0825,0.0881,0.0923,0.0924,0.1004,0.1018,0.1026,0.1073,0.1083,0.1091,0.1142,0.1141,0.1051,0.1038,0.1028,0.1024,0.1143,0,0,0,0,0,0.0485,0.0498,0.0599,0.0604,0.0631,0.0728,0.0759,0.0807,0.0869,0.0889,0.0945,0.0995,0.1028,0.1046,0.1083,0.1096,0.1123,0.1084,0.1073,0.1064,0.107,0.1068,0.1057,0.1174,0.1174,0.1174,0,0,0.0447,0.0501,0.0509,0.0583,0.0637,0.0653,0.0744,0.0779,0.079,0.0893,0.0907,0.096,0.1022,0.1029,0.1036,0.1063,0.104,0.106,0.1051,0.1064,0.1063,0.1052,0.1042,0.1172,0.1172,0.1172,0,0,0.0373,0.0423,0.0409,0.0448,0.0521,0.0585,0.0589,0.0687,0.0721,0.0752,0.0821,0.0859,0.0913,0.0956,0.0983,0.0938,0.0981,0.0939,0.0886,0.0881,0.0872,0.0864,0.0861,0.0854,0.0935,0.0935,0.0935,0,0.0313,0.0326,0.041,0.0402,0.0428,0.0544,0.0535,0.0583,0.0674,0.0711,0.0728,0.0828,0.0878,0.0905,0.0888,0.0913,0.0916,0.0928,0.0866,0.0859,0.0853,0.0853,0.0846,0.0929,0.0929,0.093,0.0931,0,0.0236,0.0242,0.0232,0.0268,0.0301,0.0309,0.0398,0.0439,0.0503,0.0569,0.0615,0.0687,0.0755,0.0763,0.0815,0.0802,0.0818,0.0848,0.0896,0.0833,0.0837,0.0833,0.092,0.0922,0.0924,0.0925,0,0,0.0112,0.0167,0.0159,0.0172,0.0234,0.0265,0.0282,0.0357,0.0385,0.0455,0.0475,0.0551,0.0619,0.0655,0.072,0.0724,0.0679,0.076,0.0763,0.0752,0.0659,0.0741,0.0744,0.0686,0.0685,0.0684,0.0671,0,0.0025,-0.0011,0.0046,0.0025,0.0025,0.0134,0.0147,0.0227,0.0301,0.034,0.0434,0.0467,0.0566,0.0585,0.0608,0.0651,0.0665,0.068,0.0729,0.0731,0.0806,0.0741,0.0796,0.0796,0.0667,0.0667,0.0666,0,-0.0073,-0.0073,-0.0116,-0.0055,-0.0045,-0.004,0.0043,0.0071,0.0164,0.0215,0.0285,0.0357,0.0396,0.0466,0.053,0.0528,0.0594,0.0633,0.0634,0.0757,0.0805,0.0843,0.0793,0.0947,0.066,0.0661,0.0661,0,-0.0182,-0.0177,-0.0204,-0.0197,-0.0128,-0.0108,-0.0062,0.0033,0.0053,0.0127,0.0128,0.0221,0.0233,0.0315,0.0457,0.0464,0.0514,0.0532,0.0678,0.0684,0.0769,0.0785,0.0875,0.0583,0.0583,0.0583,0.0583,0,-0.0285,-0.03,-0.0255,-0.027,-0.0275,-0.02,-0.0189,-0.0117,-0.0079,-0.0058,0.0048,0.0075,0.0191,0.0266,0.039,0.0529,0.0472,0.0662,0.0684,0.0727,0.0739,0.0912,0.0978,0.0583,0.0583,0.0583,0.0583,0,-0.0379,-0.0366,-0.038,-0.0337,-0.0325,-0.0326,-0.0281,-0.0273,-0.0224,-0.0214,-0.021,-0.0091,0.0032,0.0181,0.0313,0.044,0.0669,0.0649,0.0701,0.0732,0.099,0.1046,0.1146,0.126,0.075,0.0752,0.0754,0,-0.0414,-0.0445,-0.0439,-0.0446,-0.0424,-0.0414,-0.0408,-0.0354,-0.0352,-0.0272,-0.0289,-0.0175,-0.0011,0.0206,0.0425,0.0633,0.0773,0.0804,0.0848,0.1012,0.1089,0.1111,0.1202,0.0893,0.0896,0.0898,0.09,0,-0.0462,-0.0473,-0.0478,-0.0509,-0.0517,-0.0519,-0.0509,-0.0536,-0.0457,-0.0403,-0.0261,-0.0127,0.0096,0.0386,0.0628,0.0758,0.0925,0.0856,0.1002,0.1196,0.1246,0.1365,0.0895,0.0919,0.0917,0.0916,0.0915,0.0914,-0.0473,-0.0497,-0.0511,-0.0527,-0.0549,-0.0563,-0.0552,-0.0513,-0.0451,-0.0283,-0.0153,0.0169,0.0442,0.0805,0.094,0.1176,0.1118,0.1265,0.131,0.1309,0.1459,0.1044,0.1119,0.1118,0.1118,0.1117,0.1117,0,-0.0458,-0.0481,-0.0511,-0.0521,-0.0529,-0.0544,-0.0562,-0.0499,-0.0357,-0.0133,0.0139,0.0698,0.0991,0.1204,0.1462,0.1627,0.166,0.1691,0.1731,0.1798,0.1409,0.146,0.1643,0.1643,0.1642,0.1642,0.1642,0.1642,-0.0445,-0.0468,-0.0486,-0.0468,-0.0471,-0.0456,-0.0449,-0.0339,-0.0173,0.0293,0.0698,0.1049,0.1335,0.1722,0.1996,0.2025,0.2198,0.2141,0.2244,0.1979,0.1942,0.1907,0.1973,0.226,0.2261,0.2633,0.2637,0.2639]}],[{"header":{"parameterUnit":"m.s-1","parameterCategory":2,"la1":30.2991,"la2":30.254,"lo1":-89.0895,"lo2":-89.0444,"dy":0.0017,"dx":0.0017,"nx":28,"ny":28,"refTime":"2023-10-19T03:00:00:Z","depth":"2","parameterNumber":2,"parameterNumberName":"U-component_of_CURRENTS"},"data":[0,0,0,0,0,0,0,0,0,0,0,0,0,0,0,0,0,0,0,0,0,0,0,0,0,0,0,0,0,0,0,0,0,0,0,0,0,0,0,0,0,0,0,0,0,0,0,0,0,0,0,0,0,0,0,0,0,0,-0.2478,-0.2479,0,-0.2626,-0.2628,-0.2631,-0.2686,-0.2685,-0.2683,-0.2682,-0.2766,-0.2769,-0.2772,0,0,0,0,0,0,0,0,0,0,0,0,0,-0.2345,-0.2347,-0.2478,-0.2479,-0.248,-0.2626,-0.2629,-0.2631,-0.2686,-0.2684,-0.2683,-0.2682,-0.2765,-0.2768,-0.2772,0,0,0,0,0,0,0,0,0,0,0,0,0,-0.2446,-0.2348,-0.2477,-0.2519,-0.2524,-0.2625,-0.2629,-0.2632,-0.2686,-0.2684,-0.2683,-0.2681,-0.2763,-0.2768,-0.2773,-0.2839,0,0,-0.2788,-0.279,0,0,0,0,0,0,0,0,-0.244,-0.2451,-0.2512,-0.2516,-0.2522,-0.2629,-0.2612,-0.2695,-0.2687,-0.2633,-0.2682,-0.268,-0.271,-0.272,-0.2763,-0.2842,-0.2846,-0.2789,-0.2792,-0.2794,-0.2795,0,0,0,0,0,0,0,-0.2433,-0.2446,-0.2544,-0.2513,-0.2519,-0.2566,-0.2578,-0.263,-0.2684,-0.2637,-0.264,-0.2645,-0.2713,-0.2758,-0.2765,-0.2847,-0.2788,-0.2793,-0.2796,-0.2798,-0.3026,-0.3029,0,0,0,0,0,0,-0.2396,-0.2439,-0.2539,-0.2548,-0.2467,-0.2568,-0.2583,-0.2603,-0.2685,-0.2694,-0.2646,-0.2647,-0.2751,-0.2759,-0.2768,-0.2855,-0.2794,-0.2798,-0.2801,-0.3023,-0.3027,-0.303,0,0,0,0,0,0,-0.2393,-0.2405,-0.2533,-0.249,-0.2508,-0.2571,-0.2594,-0.2606,-0.2644,-0.2691,-0.27,-0.2669,-0.275,-0.2761,-0.2832,-0.2858,-0.28,-0.2805,-0.302,-0.3025,-0.3029,-0.3025,0,0,0,0,0,0,-0.2389,-0.2403,-0.2423,-0.2488,-0.2509,-0.2602,-0.2595,-0.261,-0.2647,-0.2649,-0.2714,-0.2721,-0.2749,-0.2825,-0.2837,-0.2863,-0.2809,-0.3016,-0.3022,-0.3027,-0.3022,-0.3029,-0.3036,0,0,0,0,0,-0.2384,-0.2418,-0.2424,-0.2436,-0.2529,-0.2603,-0.2621,-0.2663,-0.2649,-0.2687,-0.273,-0.2718,-0.287,-0.2832,-0.2845,-0.2873,-0.3013,-0.302,-0.3027,-0.3018,-0.3028,-0.3036,0,0,0,0,0,0,-0.2402,-0.2427,-0.2435,-0.2484,-0.2538,-0.2609,-0.266,-0.2663,-0.2731,-0.274,-0.2758,-0.2771,-0.2845,-0.2872,-0.2828,-0.2963,-0.294,-0.295,-0.2929,-0.2938,-0.2945,-0.2888,-0.2813,0,0,0,0,0,-0.2405,-0.2397,-0.2468,-0.2493,-0.2545,-0.2598,-0.2635,-0.2662,-0.2718,-0.2746,-0.2796,-0.285,-0.2891,-0.292,-0.2983,-0.3053,-0.2986,-0.3085,-0.3092,-0.3098,-0.3066,-0.2947,-0.2936,-0.3053,-0.3053,-0.3053,0,0,-0.2419,-0.2419,-0.2426,-0.2489,-0.2552,-0.2616,-0.2621,-0.2693,-0.2719,-0.2745,-0.2832,-0.2882,-0.2918,-0.3003,-0.3037,-0.3022,-0.3048,-0.3107,-0.311,-0.3075,-0.2952,-0.2939,-0.2927,-0.3058,-0.3057,-0.3056,0,0,-0.2428,-0.2461,-0.2478,-0.2528,-0.2598,-0.2637,-0.2649,-0.2752,-0.2789,-0.2867,-0.2888,-0.293,-0.304,-0.3053,-0.3066,-0.3147,-0.3089,-0.3205,-0.3188,-0.3074,-0.306,-0.3047,-0.2996,-0.2978,-0.3206,-0.3206,-0.3206,0,-0.2458,-0.246,-0.2502,-0.2547,-0.2577,-0.2637,-0.2692,-0.2749,-0.2846,-0.285,-0.2896,-0.2988,-0.304,-0.3044,-0.3108,-0.315,-0.3105,-0.3141,-0.3071,-0.3057,-0.3043,-0.2993,-0.2973,-0.3206,-0.3206,-0.3206,-0.3206,0,-0.2486,-0.2501,-0.2533,-0.2575,-0.2632,-0.2685,-0.2768,-0.283,-0.2868,-0.2882,-0.2929,-0.3009,-0.3035,-0.3089,-0.3134,-0.3095,-0.3104,-0.3084,-0.3021,-0.3028,-0.298,-0.2959,-0.3207,-0.3207,-0.3207,-0.3207,0,0,-0.2498,-0.2541,-0.255,-0.2546,-0.2643,-0.2679,-0.2755,-0.2797,-0.2775,-0.2887,-0.2851,-0.2967,-0.2984,-0.3004,-0.3063,-0.3005,-0.2923,-0.3031,-0.3025,-0.2934,-0.2713,-0.264,-0.261,-0.2881,-0.2877,-0.2873,-0.2733,0,-0.2505,-0.2536,-0.2571,-0.2596,-0.2625,-0.2698,-0.2731,-0.277,-0.2802,-0.2804,-0.2837,-0.2849,-0.2954,-0.2977,-0.2939,-0.2935,-0.2861,-0.2965,-0.2761,-0.2755,-0.2646,-0.2579,-0.2426,-0.2278,-0.2712,-0.2708,-0.2706,0,-0.2511,-0.25,-0.254,-0.2531,-0.2566,-0.2598,-0.2616,-0.2654,-0.2663,-0.2689,-0.2697,-0.2729,-0.2737,-0.2794,-0.2718,-0.2788,-0.2749,-0.2723,-0.2715,-0.2614,-0.2638,-0.2338,-0.2223,-0.2669,-0.2672,-0.2675,-0.2677,0,-0.2412,-0.2465,-0.246,-0.2477,-0.2519,-0.2542,-0.2571,-0.2599,-0.2611,-0.2597,-0.2596,-0.2582,-0.2596,-0.2533,-0.2575,-0.2626,-0.2444,-0.2481,-0.2357,-0.2356,-0.2162,-0.2149,-0.2323,-0.2323,-0.2324,-0.2324,-0.2325,0,-0.2344,-0.2336,-0.241,-0.2389,-0.2387,-0.2451,-0.2431,-0.2472,-0.2487,-0.2461,-0.2522,-0.2509,-0.2526,-0.2476,-0.2482,-0.2366,-0.2352,-0.2311,-0.2277,-0.2172,-0.2161,-0.2451,-0.2468,-0.2319,-0.232,-0.2321,-0.2322,0,-0.2239,-0.2277,-0.2259,-0.2303,-0.2332,-0.2329,-0.2392,-0.2352,-0.24,-0.2379,-0.2383,-0.2425,-0.2351,-0.2343,-0.2233,-0.2232,-0.2126,-0.207,-0.199,-0.1947,-0.2147,-0.2167,-0.1899,-0.1894,-0.189,-0.1887,-0.1884,0,-0.2204,-0.2166,-0.2212,-0.2205,-0.2232,-0.2248,-0.2246,-0.2306,-0.2285,-0.2329,-0.2304,-0.2258,-0.2203,-0.2043,-0.1956,-0.1839,-0.1962,-0.1665,-0.1705,-0.2091,-0.2086,-0.2112,-0.2136,-0.1486,-0.148,-0.1475,-0.1471,0,-0.2091,-0.2104,-0.2088,-0.2086,-0.2084,-0.2079,-0.2097,-0.2095,-0.2145,-0.2155,-0.2138,-0.2094,-0.1947,-0.1752,-0.1611,-0.1546,-0.168,-0.1565,-0.189,-0.1632,-0.1691,-0.1692,-0.173,-0.1429,-0.1434,-0.1437,-0.1439,-0.1441,-0.2012,-0.1981,-0.1949,-0.1941,-0.1928,-0.1887,-0.1841,-0.1869,-0.1847,-0.1848,-0.1938,-0.1832,-0.1752,-0.1439,-0.1317,-0.1217,-0.1343,-0.1322,-0.134,-0.1362,-0.1353,-0.1402,-0.1089,-0.1091,-0.1093,-0.1095,-0.1096,0,-0.1884,-0.1841,-0.1811,-0.1745,-0.1667,-0.1727,-0.1704,-0.1633,-0.1576,-0.1632,-0.1629,-0.1437,-0.1267,-0.1175,-0.0935,-0.0882,-0.0904,-0.0864,-0.0909,-0.0949,-0.0985,-0.0962,-0.0591,-0.059,-0.0589,-0.0588,0,0,-0.1781,-0.1678,-0.1651,-0.1476,-0.1458,-0.1314,-0.1276,-0.1236,-0.1239,-0.1199,-0.1175,-0.1294,-0.1203,-0.0957,-0.0845,-0.0684,-0.0831,-0.0644,-0.1045,-0.1142,-0.1178,-0.1232,-0.1237,0,0,0,0,0]},{"header":{"parameterUnit":"m.s-1","parameterCategory":2,"la1":30.2991,"la2":30.254,"lo1":-89.0895,"lo2":-89.0444,"dy":0.0017,"dx":0.0017,"nx":28,"ny":28,"refTime":"2023-10-19T03:00:00:Z","depth":"2","parameterNumber":3,"parameterNumberName":"V-component_of_CURRENTS"},"data":[0,0,0,0,0,0,0,0,0,0,0,0,0,0,0,0,0,0,0,0,0,0,0,0,0,0,0,0,0,0,0,0,0,0,0,0,0,0,0,0,0,0,0,0,0,0,0,0,0,0,0,0,0,0,0,0,0,0,-0.0582,-0.0581,0,-0.0507,-0.0506,-0.0505,-0.044,-0.044,-0.0439,-0.0438,-0.0229,-0.0224,-0.0219,0,0,0,0,0,0,0,0,0,0,0,0,0,-0.0648,-0.0647,-0.0582,-0.0581,-0.058,-0.0508,-0.0506,-0.0505,-0.044,-0.044,-0.0439,-0.0438,-0.0231,-0.0225,-0.0219,0,0,0,0,0,0,0,0,0,0,0,0,0,-0.0599,-0.0647,-0.0582,-0.0541,-0.0536,-0.0508,-0.0506,-0.0505,-0.044,-0.044,-0.0439,-0.0438,-0.0233,-0.0226,-0.0218,-0.0188,0,0,-0.0195,-0.0192,0,0,0,0,0,0,0,0,-0.0602,-0.0597,-0.0547,-0.0543,-0.0539,-0.0484,-0.0453,-0.0393,-0.0441,-0.0475,-0.0438,-0.0437,-0.0304,-0.029,-0.0277,-0.0179,-0.017,-0.0194,-0.019,-0.0186,-0.0184,0,0,0,0,0,0,0,-0.0606,-0.0599,-0.055,-0.0547,-0.0541,-0.0519,-0.0511,-0.0442,-0.0391,-0.0472,-0.0467,-0.0462,-0.03,-0.0285,-0.0272,-0.0166,-0.0195,-0.0188,-0.0183,-0.018,0.007,0.0072,0,0,0,0,0,0,-0.0621,-0.0603,-0.0553,-0.0548,-0.0571,-0.0519,-0.051,-0.0501,-0.0394,-0.0379,-0.0463,-0.046,-0.0298,-0.0281,-0.0264,-0.0163,-0.0187,-0.0179,-0.0175,0.0068,0.007,0.0072,0,0,0,0,0,0,-0.0622,-0.0617,-0.0556,-0.0576,-0.0567,-0.0519,-0.0509,-0.05,-0.0478,-0.039,-0.0371,-0.0451,-0.0297,-0.0274,-0.0191,-0.0156,-0.0176,-0.0169,0.0065,0.0068,0.0071,0.0002,0,0,0,0,0,0,-0.0625,-0.0618,-0.0624,-0.0577,-0.0566,-0.0547,-0.051,-0.0499,-0.0478,-0.0473,-0.0373,-0.0354,-0.0295,-0.0203,-0.0184,-0.0146,-0.0163,0.0062,0.0066,0.007,0.0001,0.0002,0.0003,0,0,0,0,0,-0.0627,-0.0645,-0.0625,-0.0619,-0.0574,-0.0548,-0.0541,-0.0502,-0.0479,-0.0478,-0.0398,-0.0356,-0.0163,-0.0196,-0.0174,-0.0133,0.006,0.0065,0.007,0.0001,0.0002,0.0003,0,0,0,0,0,0,-0.0669,-0.0638,-0.0616,-0.062,-0.0588,-0.0538,-0.053,-0.0506,-0.0446,-0.0425,-0.0344,-0.0318,-0.0232,-0.0169,-0.0208,-0.0044,-0.0038,-0.0029,-0.0098,-0.0096,-0.0096,-0.0124,-0.0157,0,0,0,0,0,-0.0684,-0.0691,-0.0647,-0.0648,-0.0627,-0.0577,-0.0563,-0.0534,-0.0475,-0.0449,-0.0375,-0.0279,-0.0196,-0.014,-0.0064,0.0019,0.005,0.0068,0.0069,0.0069,0.0065,0.01,0.0102,0.0088,0.0088,0.0088,0,0,-0.0697,-0.0685,-0.0685,-0.0659,-0.062,-0.0605,-0.0565,-0.0538,-0.0517,-0.0432,-0.0365,-0.0284,-0.0177,-0.0086,-0.0038,-0.0027,0.0098,0.0075,0.0073,0.0069,0.0105,0.0106,0.0107,0.0091,0.009,0.009,0,0,-0.0731,-0.0709,-0.0721,-0.0699,-0.0658,-0.0627,-0.0622,-0.0559,-0.0517,-0.0455,-0.0376,-0.0282,-0.016,-0.0072,-0.0014,0.004,0.0087,0.0084,0.0077,0.0111,0.0111,0.0111,0.0173,0.018,0.0097,0.0097,0.0097,0,-0.0753,-0.0755,-0.0721,-0.072,-0.07,-0.064,-0.0631,-0.0589,-0.0509,-0.0467,-0.0439,-0.0245,-0.0155,-0.0038,-0.0006,0.0039,0.007,0.0055,0.0106,0.0107,0.0108,0.0171,0.0179,0.0094,0.0095,0.0095,0.0095,0,-0.0783,-0.0785,-0.0782,-0.0763,-0.0739,-0.0721,-0.0655,-0.0611,-0.0551,-0.0507,-0.0389,-0.0265,-0.0149,-0.009,-0.0027,0.0057,0.0081,0.0082,0.0085,0.0104,0.0172,0.0181,0.0091,0.0092,0.0092,0.0093,0,0,-0.0832,-0.0812,-0.0812,-0.0803,-0.0755,-0.0736,-0.0685,-0.0625,-0.0587,-0.0494,-0.0428,-0.0268,-0.0202,-0.0128,-0.0024,0.0032,0.0089,0.0066,0.007,0.0096,0.0182,0.0203,0.0216,0.0083,0.0084,0.0085,0.0231,0,-0.0862,-0.0883,-0.0854,-0.0852,-0.0844,-0.0769,-0.073,-0.0667,-0.0593,-0.0517,-0.0383,-0.029,-0.0217,-0.014,-0.0077,0.005,0.0106,0.005,0.0188,0.0194,0.0182,0.0224,0.0216,0.0344,0.024,0.0242,0.0243,0,-0.0899,-0.0908,-0.0921,-0.0884,-0.0867,-0.086,-0.0773,-0.0729,-0.0618,-0.0552,-0.0447,-0.0351,-0.0207,-0.017,0.0019,-0.0023,0.0073,0.0156,0.0163,0.0208,0.0231,0.031,0.0365,0.0258,0.0257,0.0256,0.0255,0,-0.0955,-0.0949,-0.0964,-0.0954,-0.0908,-0.0883,-0.0844,-0.0749,-0.0685,-0.0579,-0.0515,-0.0375,-0.0264,-0.0154,0.0037,0.0026,0.022,0.0222,0.0331,0.0335,0.037,0.0375,0.0321,0.032,0.032,0.032,0.0319,0,-0.1001,-0.1009,-0.0998,-0.1008,-0.1003,-0.094,-0.0903,-0.0841,-0.0728,-0.0656,-0.054,-0.0432,-0.0261,-0.0115,0.0019,0.0215,0.0205,0.0341,0.0371,0.0352,0.0353,0.0305,0.0301,0.0325,0.0324,0.0323,0.0322,0,-0.1053,-0.1051,-0.1071,-0.1046,-0.1039,-0.1033,-0.0948,-0.0908,-0.0802,-0.0695,-0.0654,-0.046,-0.0273,-0.0099,0.0112,0.0214,0.0378,0.0441,0.0424,0.0448,0.0479,0.047,0.0584,0.0586,0.0588,0.0589,0.059,0,-0.1084,-0.1106,-0.112,-0.1134,-0.1128,-0.1105,-0.1079,-0.0968,-0.0909,-0.0697,-0.0642,-0.0433,-0.0264,0.005,0.0248,0.0471,0.045,0.0574,0.0547,0.0486,0.0504,0.0493,0.0483,0.0589,0.059,0.059,0.0591,0,-0.1135,-0.1148,-0.116,-0.1202,-0.1203,-0.1183,-0.1133,-0.1092,-0.0935,-0.0824,-0.0629,-0.0473,-0.0137,0.0125,0.0394,0.0511,0.0531,0.0598,0.0548,0.0506,0.0497,0.0512,0.0501,0.0598,0.0598,0.0597,0.0597,0.0597,-0.1171,-0.1195,-0.1226,-0.1251,-0.1259,-0.1248,-0.1223,-0.1149,-0.1044,-0.0844,-0.0685,-0.0429,-0.0132,0.0263,0.0475,0.0651,0.0641,0.0676,0.067,0.0665,0.0622,0.0614,0.0733,0.0733,0.0733,0.0733,0.0733,0,-0.1209,-0.123,-0.1267,-0.1292,-0.1302,-0.1293,-0.124,-0.1179,-0.1075,-0.0866,-0.0684,-0.0356,-0.0038,0.0264,0.0581,0.076,0.0734,0.0761,0.0709,0.0701,0.0694,0.0649,0.077,0.077,0.077,0.0771,0,0,-0.1223,-0.1259,-0.1271,-0.1309,-0.133,-0.1315,-0.1285,-0.1191,-0.1034,-0.0824,-0.0623,-0.0404,0.0007,0.0217,0.0464,0.0644,0.0612,0.064,0.0594,0.0498,0.0489,0.0634,0.0555,0,0,0,0,0]}],[{"header":{"parameterUnit":"m.s-1","parameterCategory":2,"la1":30.2991,"la2":30.254,"lo1":-89.0895,"lo2":-89.0444,"dy":0.0017,"dx":0.0017,"nx":28,"ny":28,"refTime":"2023-10-19T03:00:00:Z","depth":"4","parameterNumber":2,"parameterNumberName":"U-component_of_CURRENTS"},"data":[0,0,0,0,0,0,0,0,0,0,0,0,0,0,0,0,0,0,0,0,0,0,0,0,0,0,0,0,0,0,0,0,0,0,0,0,0,0,0,0,0,0,0,0,0,0,0,0,0,0,0,0,0,0,0,0,0,0,-0.1425,-0.1425,0,-0.1491,-0.1492,-0.1492,-0.1523,-0.1523,-0.1523,-0.1523,-0.162,-0.1623,-0.1625,0,0,0,0,0,0,0,0,0,0,0,0,0,-0.1304,-0.1306,-0.1425,-0.1426,-0.1426,-0.1491,-0.1492,-0.1492,-0.1523,-0.1523,-0.1523,-0.1523,-0.1619,-0.1622,-0.1625,0,0,0,0,0,0,0,0,0,0,0,0,0,-0.1361,-0.1307,-0.1424,-0.145,-0.1454,-0.1491,-0.1492,-0.1493,-0.1523,-0.1523,-0.1523,-0.1523,-0.1618,-0.1622,-0.1626,-0.1647,0,0,-0.1637,-0.1639,0,0,0,0,0,0,0,0,-0.1358,-0.1365,-0.1446,-0.1449,-0.1452,-0.15,-0.1485,-0.1546,-0.1523,-0.1495,-0.1523,-0.1523,-0.1584,-0.159,-0.16,-0.1652,-0.1656,-0.1638,-0.164,-0.1642,-0.1643,0,0,0,0,0,0,0,-0.1354,-0.1362,-0.1449,-0.1447,-0.1451,-0.1452,-0.146,-0.1496,-0.1537,-0.1497,-0.15,-0.151,-0.1586,-0.1596,-0.1603,-0.1657,-0.1638,-0.1641,-0.1643,-0.1645,-0.18,-0.1802,0,0,0,0,0,0,-0.135,-0.1359,-0.1447,-0.1452,-0.1406,-0.1454,-0.1463,-0.1483,-0.1536,-0.1545,-0.151,-0.1511,-0.159,-0.1598,-0.1606,-0.1689,-0.1642,-0.1645,-0.1647,-0.1798,-0.1801,-0.1803,0,0,0,0,0,0,-0.1347,-0.1357,-0.1445,-0.1407,-0.1418,-0.1457,-0.1479,-0.1485,-0.1512,-0.1546,-0.1554,-0.1533,-0.159,-0.1601,-0.167,-0.169,-0.1647,-0.165,-0.1796,-0.1799,-0.1802,-0.1819,0,0,0,0,0,0,-0.1343,-0.1356,-0.1377,-0.1407,-0.142,-0.1481,-0.1479,-0.1486,-0.1517,-0.152,-0.1568,-0.1576,-0.1591,-0.1664,-0.1674,-0.1695,-0.1653,-0.1794,-0.1798,-0.1801,-0.1816,-0.1822,-0.1827,0,0,0,0,0,-0.1339,-0.136,-0.1378,-0.1389,-0.1446,-0.1482,-0.1489,-0.1515,-0.1519,-0.1538,-0.1581,-0.1575,-0.1693,-0.167,-0.168,-0.1702,-0.1792,-0.1796,-0.1801,-0.1813,-0.182,-0.1827,0,0,0,0,0,0,-0.1321,-0.1366,-0.1386,-0.1422,-0.1458,-0.1488,-0.1511,-0.1524,-0.1571,-0.1584,-0.1606,-0.1618,-0.1685,-0.1698,-0.1672,-0.176,-0.1739,-0.1745,-0.1745,-0.1752,-0.1758,-0.1711,-0.1656,0,0,0,0,0,-0.1327,-0.1357,-0.1399,-0.1432,-0.1451,-0.1484,-0.1505,-0.1527,-0.1567,-0.1587,-0.1624,-0.1667,-0.1708,-0.1734,-0.1775,-0.1826,-0.1817,-0.1847,-0.1853,-0.1857,-0.1828,-0.1879,-0.1886,-0.1816,-0.1816,-0.1816,0,0,-0.133,-0.136,-0.1378,-0.143,-0.1461,-0.1491,-0.1498,-0.154,-0.1569,-0.1592,-0.1656,-0.1694,-0.1728,-0.1788,-0.1817,-0.1802,-0.1869,-0.1862,-0.1865,-0.1834,-0.1884,-0.1891,-0.1896,-0.1819,-0.1819,-0.1818,0,0,-0.134,-0.138,-0.1404,-0.1437,-0.149,-0.1511,-0.1526,-0.1577,-0.1606,-0.1673,-0.1694,-0.1731,-0.1817,-0.1823,-0.184,-0.1898,-0.1901,-0.1937,-0.1922,-0.1973,-0.1978,-0.1982,-0.1955,-0.1957,-0.1934,-0.1934,-0.1934,0,-0.134,-0.1385,-0.1418,-0.1449,-0.1475,-0.1519,-0.1548,-0.1584,-0.1654,-0.1683,-0.1702,-0.1801,-0.1816,-0.1858,-0.1872,-0.1902,-0.1926,-0.1891,-0.1977,-0.1982,-0.1986,-0.1957,-0.1958,-0.1936,-0.1935,-0.1935,-0.1935,0,-0.1366,-0.1408,-0.1427,-0.148,-0.1507,-0.1549,-0.1594,-0.1644,-0.1688,-0.172,-0.1795,-0.1828,-0.1875,-0.1893,-0.1895,-0.1938,-0.1941,-0.1982,-0.1951,-0.1993,-0.196,-0.1962,-0.1937,-0.1937,-0.1937,-0.1936,0,0,-0.1342,-0.1429,-0.1436,-0.1468,-0.1532,-0.1556,-0.1612,-0.1669,-0.172,-0.1779,-0.1835,-0.1866,-0.1886,-0.1902,-0.1921,-0.1941,-0.1964,-0.1974,-0.1976,-0.1927,-0.2047,-0.1886,-0.1872,-0.2057,-0.2058,-0.2059,-0.2001,0,-0.1356,-0.1413,-0.1452,-0.1506,-0.1538,-0.1595,-0.1648,-0.1703,-0.1766,-0.184,-0.1858,-0.1924,-0.1893,-0.1934,-0.1946,-0.1983,-0.1976,-0.1972,-0.2028,-0.2027,-0.1865,-0.1871,-0.2063,-0.2002,-0.2002,-0.2003,-0.2003,0,-0.1357,-0.1399,-0.145,-0.1534,-0.1555,-0.1595,-0.1683,-0.1737,-0.1831,-0.189,-0.1935,-0.1977,-0.1984,-0.1984,-0.1999,-0.202,-0.2013,-0.2021,-0.2022,-0.1858,-0.1869,-0.1961,-0.2005,-0.2005,-0.2005,-0.2005,-0.2005,0,-0.1305,-0.1391,-0.1433,-0.146,-0.156,-0.1601,-0.1655,-0.1748,-0.1814,-0.1915,-0.1978,-0.2016,-0.2042,-0.2064,-0.2026,-0.2054,-0.2045,-0.2094,-0.1919,-0.1906,-0.2061,-0.2057,-0.2093,-0.2093,-0.2093,-0.2093,-0.2093,0,-0.1284,-0.1322,-0.1421,-0.1444,-0.1505,-0.1578,-0.1665,-0.1733,-0.1855,-0.1915,-0.1989,-0.2024,-0.2078,-0.2075,-0.2052,-0.195,-0.2057,-0.1881,-0.1883,-0.2067,-0.2065,-0.206,-0.2057,-0.2091,-0.2091,-0.2092,-0.2092,0,-0.1211,-0.1283,-0.1338,-0.1448,-0.148,-0.1516,-0.1657,-0.1727,-0.1845,-0.1927,-0.1962,-0.2044,-0.2012,-0.2009,-0.2017,-0.1948,-0.1899,-0.1836,-0.1962,-0.1979,-0.1718,-0.1717,-0.1647,-0.1641,-0.1636,-0.1631,-0.1628,0,-0.1179,-0.1205,-0.1311,-0.1339,-0.139,-0.1474,-0.1539,-0.1691,-0.1756,-0.1903,-0.1919,-0.1946,-0.1961,-0.1806,-0.1834,-0.1747,-0.1729,-0.1697,-0.1742,-0.1663,-0.1674,-0.1682,-0.1687,-0.162,-0.1618,-0.1617,-0.1615,0,-0.1118,-0.1168,-0.1211,-0.1258,-0.1321,-0.1395,-0.149,-0.1536,-0.1694,-0.1828,-0.182,-0.1799,-0.174,-0.1692,-0.1612,-0.1569,-0.1729,-0.1643,-0.1655,-0.1697,-0.1629,-0.1647,-0.1659,-0.1598,-0.16,-0.1602,-0.1603,0,-0.1074,-0.1079,-0.1134,-0.1161,-0.1237,-0.1272,-0.135,-0.1415,-0.1499,-0.1666,-0.1646,-0.166,-0.1716,-0.1595,-0.1537,-0.1457,-0.145,-0.1436,-0.1458,-0.1478,-0.1448,-0.1339,-0.1191,0,0,0,0,0,-0.1012,-0.1003,-0.1031,-0.1059,-0.1132,-0.1165,-0.1296,-0.1387,-0.154,-0.1488,-0.157,-0.1504,-0.1425,-0.1436,-0.131,-0.1444,-0.1444,-0.1296,-0.144,-0.1498,-0.1519,-0.1497,0,0,0,0,0,0,-0.0974,-0.0992,-0.0989,-0.0962,-0.0962,-0.1031,-0.1107,-0.1215,-0.12,-0.1347,-0.1291,-0.1408,-0.1323,-0.144,-0.1269,-0.127,-0.1332,-0.1317,-0.1313,-0.1486,-0.1505,-0.1522,-0.1507,0,0,0,0,0]},{"header":{"parameterUnit":"m.s-1","parameterCategory":2,"la1":30.2991,"la2":30.254,"lo1":-89.0895,"lo2":-89.0444,"dy":0.0017,"dx":0.0017,"nx":28,"ny":28,"refTime":"2023-10-19T03:00:00:Z","depth":"4","parameterNumber":3,"parameterNumberName":"V-component_of_CURRENTS"},"data":[0,0,0,0,0,0,0,0,0,0,0,0,0,0,0,0,0,0,0,0,0,0,0,0,0,0,0,0,0,0,0,0,0,0,0,0,0,0,0,0,0,0,0,0,0,0,0,0,0,0,0,0,0,0,0,0,0,0,-0.0471,-0.0471,0,-0.0461,-0.0461,-0.0461,-0.0413,-0.0412,-0.0411,-0.0411,-0.0338,-0.0337,-0.0335,0,0,0,0,0,0,0,0,0,0,0,0,0,-0.0464,-0.0464,-0.0471,-0.0471,-0.0471,-0.0461,-0.0461,-0.0461,-0.0413,-0.0412,-0.0411,-0.041,-0.0338,-0.0337,-0.0335,0,0,0,0,0,0,0,0,0,0,0,0,0,-0.0459,-0.0464,-0.0471,-0.0448,-0.0446,-0.0461,-0.0461,-0.046,-0.0414,-0.0412,-0.0411,-0.041,-0.0338,-0.0337,-0.0335,-0.0352,0,0,-0.033,-0.0329,0,0,0,0,0,0,0,0,-0.046,-0.0459,-0.0451,-0.045,-0.0447,-0.0439,-0.0432,-0.0422,-0.0414,-0.0423,-0.0411,-0.0409,-0.0368,-0.0364,-0.0363,-0.0348,-0.0345,-0.033,-0.0329,-0.0328,-0.0328,0,0,0,0,0,0,0,-0.046,-0.046,-0.0464,-0.0451,-0.0449,-0.0444,-0.0442,-0.043,-0.04,-0.0422,-0.0419,-0.0423,-0.0366,-0.0364,-0.036,-0.0344,-0.033,-0.0328,-0.0327,-0.0327,-0.0328,-0.0329,0,0,0,0,0,0,-0.0467,-0.046,-0.0465,-0.0464,-0.0453,-0.0445,-0.0442,-0.0441,-0.0402,-0.0396,-0.0424,-0.0421,-0.0368,-0.0362,-0.0358,-0.0363,-0.0328,-0.0327,-0.0326,-0.0327,-0.0328,-0.0329,0,0,0,0,0,0,-0.0467,-0.0467,-0.0465,-0.0464,-0.0464,-0.0447,-0.0446,-0.0442,-0.0437,-0.0404,-0.0396,-0.0424,-0.0367,-0.036,-0.0351,-0.036,-0.0326,-0.0324,-0.0325,-0.0327,-0.0328,-0.0381,0,0,0,0,0,0,-0.0467,-0.0467,-0.0476,-0.0464,-0.0464,-0.0479,-0.0447,-0.0443,-0.0443,-0.0438,-0.0402,-0.0393,-0.0365,-0.0354,-0.035,-0.0357,-0.0323,-0.0324,-0.0326,-0.0328,-0.0378,-0.0384,-0.0389,0,0,0,0,0,-0.0466,-0.0484,-0.0476,-0.0477,-0.0473,-0.048,-0.0479,-0.0461,-0.0444,-0.045,-0.0425,-0.0394,-0.0363,-0.0354,-0.0349,-0.0355,-0.0323,-0.0325,-0.0328,-0.0375,-0.0383,-0.0389,0,0,0,0,0,0,-0.0484,-0.048,-0.0471,-0.0486,-0.0485,-0.0473,-0.0481,-0.0468,-0.0455,-0.0447,-0.0409,-0.04,-0.04,-0.0375,-0.0366,-0.0363,-0.0338,-0.0339,-0.0376,-0.0383,-0.0388,-0.0365,-0.0322,0,0,0,0,0,-0.0494,-0.0506,-0.0498,-0.0512,-0.0511,-0.0497,-0.0499,-0.0487,-0.0474,-0.0466,-0.0444,-0.0421,-0.0408,-0.0392,-0.0382,-0.0378,-0.031,-0.038,-0.0385,-0.039,-0.0369,-0.0261,-0.0253,-0.0336,-0.0336,-0.0336,0,0,-0.0505,-0.0507,-0.0513,-0.0517,-0.0512,-0.0519,-0.0494,-0.05,-0.0505,-0.0461,-0.0463,-0.0446,-0.0415,-0.0414,-0.0409,-0.0389,-0.034,-0.0393,-0.0397,-0.0373,-0.0262,-0.0253,-0.0245,-0.0338,-0.0338,-0.0337,0,0,-0.0535,-0.0533,-0.055,-0.0553,-0.0555,-0.0544,-0.0548,-0.0539,-0.0532,-0.0541,-0.0508,-0.0486,-0.0481,-0.0445,-0.0429,-0.0458,-0.0382,-0.0469,-0.0466,-0.0362,-0.0352,-0.0343,-0.0278,-0.0263,-0.0461,-0.0461,-0.0461,0,-0.0548,-0.0566,-0.0558,-0.0574,-0.0578,-0.0556,-0.0569,-0.0566,-0.0558,-0.0548,-0.0549,-0.0506,-0.0489,-0.0448,-0.0465,-0.0467,-0.0405,-0.0442,-0.0365,-0.0354,-0.0344,-0.0278,-0.0261,-0.0464,-0.0463,-0.0463,-0.0463,0,-0.0586,-0.0601,-0.0613,-0.0621,-0.0623,-0.0635,-0.0624,-0.0628,-0.062,-0.0602,-0.0578,-0.0546,-0.0504,-0.0512,-0.0501,-0.0431,-0.0413,-0.0391,-0.0339,-0.0338,-0.0271,-0.0251,-0.0468,-0.0467,-0.0466,-0.0465,0,0,-0.0605,-0.0633,-0.0637,-0.0646,-0.0647,-0.0651,-0.0661,-0.0651,-0.0634,-0.0626,-0.0587,-0.0576,-0.0533,-0.051,-0.0481,-0.0401,-0.0305,-0.037,-0.0363,-0.0292,-0.0089,-0.014,-0.0123,-0.0258,-0.0254,-0.0251,-0.0082,0,-0.0634,-0.0676,-0.0677,-0.0703,-0.0715,-0.0701,-0.0706,-0.0691,-0.0668,-0.0629,-0.0575,-0.0534,-0.0538,-0.0506,-0.0429,-0.0334,-0.025,-0.0353,-0.0112,-0.0105,-0.0137,-0.0101,-0.0239,-0.0067,-0.0062,-0.0059,-0.0057,0,-0.0663,-0.0688,-0.0726,-0.0734,-0.0735,-0.0749,-0.0727,-0.0725,-0.0665,-0.0641,-0.0574,-0.0519,-0.0423,-0.0416,-0.0224,-0.0287,-0.019,-0.0114,-0.0105,-0.011,-0.0118,-0.0061,-0.002,-0.0023,-0.0026,-0.0028,-0.003,0,-0.0678,-0.0713,-0.0745,-0.0754,-0.0765,-0.0776,-0.0771,-0.0732,-0.0712,-0.0626,-0.058,-0.0465,-0.0389,-0.0249,-0.0132,-0.0152,0.0089,0.009,0.0139,0.0136,0.0156,0.0145,0.026,0.026,0.0259,0.0259,0.0258,0,-0.0698,-0.0724,-0.0761,-0.0782,-0.0806,-0.0795,-0.0793,-0.0772,-0.0708,-0.0658,-0.0574,-0.0491,-0.0335,-0.0198,-0.0091,0.0071,0.013,0.016,0.0192,0.012,0.0104,0.0168,0.0155,0.0265,0.0264,0.0263,0.0262,0,-0.0709,-0.0736,-0.0779,-0.081,-0.0821,-0.0836,-0.0828,-0.0815,-0.0745,-0.0668,-0.0633,-0.0481,-0.0305,-0.0165,0.0068,0.0121,0.028,0.0326,0.0219,0.0238,0.0248,0.023,0.0421,0.0421,0.0421,0.0421,0.0421,0,-0.0718,-0.0747,-0.0809,-0.084,-0.0863,-0.0883,-0.0896,-0.085,-0.0819,-0.066,-0.0614,-0.0427,-0.0324,-0.0038,0.0101,0.0309,0.0323,0.0394,0.0338,0.0261,0.0274,0.0255,0.0238,0.0421,0.0421,0.0421,0.0421,0,-0.0736,-0.0769,-0.0806,-0.0875,-0.0912,-0.0938,-0.094,-0.0912,-0.0827,-0.0757,-0.0574,-0.0414,-0.0217,-0.003,0.012,0.0266,0.0339,0.0394,0.0395,0.0344,0.0264,0.0271,0.0254,0.0421,0.0421,0.0421,0.0421,0,-0.0751,-0.0782,-0.0843,-0.0894,-0.0951,-0.0976,-0.0972,-0.0912,-0.0859,-0.0678,-0.0615,-0.0391,-0.0254,-0.0048,0.0098,0.0221,0.0251,0.0271,0.0279,0.0281,0.0165,0.0038,0.0179,0,0,0,0,0,-0.0754,-0.0792,-0.0852,-0.0911,-0.0972,-0.1,-0.0993,-0.097,-0.0876,-0.0757,-0.068,-0.0496,-0.0238,-0.0111,0.0007,0.0072,0.0245,0.0211,0.0264,0.0421,0.0421,0.0301,0,0,0,0,0,0,-0.0759,-0.0818,-0.0849,-0.092,-0.0962,-0.1016,-0.1016,-0.0956,-0.0876,-0.0758,-0.062,-0.0495,-0.0254,-0.031,0.0002,0.0046,0.0088,0.0347,0.0349,0.0421,0.0421,0.0421,0.0298,0,0,0,0,0]}]]